Regional Weather Roundup
Issued by NWS

Home | Current Version | Previous Version | Text Only | Print | Product List | Glossary On
Versions: 1 2 3 4 5 6 7 8 9 10 11 12 13 14 15 16 17 18 19 20 21 22 23 24 25 26 27 28 29 30 31 32 33 34 35 36 37 38 39 40 41 42 43 44 45 46 47 48 49 50
000
ASUS42 KFFC 211010
RWRGA
WEATHER ROUNDUP FOR GEORGIA
NATIONAL WEATHER SERVICE PEACHTREE CITY GA
500 AM EST TUE NOV 21 2017

NOTE: "FAIR" INDICATES FEW OR NO CLOUDS BELOW 12,000 FEET WITH NO
SIGNIFICANT WEATHER AND/OR OBSTRUCTIONS TO VISIBILITY.

* = USE WITH CAUTION. THE STATIONS MARKED WITH AN ASTERISK MAY NOT
REPORT WEATHER SUCH AS PRECIPITATION, FOG, OR THUNDER AND ARE NOT
QUALITY CONTROLLED BY NWS.

THE REMARK "TC" DENOTES TEMPERATURE READING IN DEGREES CELSIUS.

GAZ001>058-211100-
NORTH GEORGIA

CITY           SKY/WX    TMP DP  RH WIND       PRES   REMARKS
ATLANTA        CLOUDY    45  39  79 E6        30.13F
ATHENS         MOCLDY    44  37  76 NE3       30.15F
CHAMBLEE       CLOUDY    44  36  73 VRB3      30.14F
PEACHTREE CITY CLOUDY    41  39  93 CALM      30.13F
ROME           CLOUDY    35  34  96 CALM      30.13S
WEST ATLANTA   MOCLDY    44  38  79 CALM      30.14S
GAINESVILLE    MOCLDY    46  32  58 E7        30.17S
CARTERSVILLE   MOCLDY    44  37  76 E3        30.14F


CITY           SKY/WX    TMP DP  RH WIND       PRES   REMARKS
DALTON*        CLOUDY    37  34  87 CALM      30.14S
LAWRENCEVILLE* CLOUDY    44  34  67 NE5         N/A
MARIETTA       CLOUDY    44  35  71 CALM      30.13S
KENNESAW*      CLOUDY    45  35  68 VRB3      30.14F
CANTON*        CLOUDY    46  34  61 E3        30.15F
$$

GAZ059>098-102>109-211100-
CENTRAL GEORGIA

CITY           SKY/WX    TMP DP  RH WIND       PRES   REMARKS
AUGUSTA-BUSH   CLOUDY    44  40  85 CALM      30.17F
AUGUSTA-DANIEL CLOUDY    49  33  54 E7        30.17F
COLUMBUS       MOCLDY    51  43  74 NE3       30.11S
MACON          MOCLDY    46  43  89 CALM      30.12F
ROBINS AFB     MOCLDY    46  43  91 N3        30.12S


CITY           SKY/WX    TMP DP  RH WIND       PRES   REMARKS
LAGRANGE*      CLOUDY    46  45  97 CALM      30.12S
SYLVANIA*      CLOUDY    50  46  83 E3        30.16F
MILLEDGEVILLE* MOCLDY    52  43  71 E5        30.15R
$$

GAZ099>101-110>166-211100-
SOUTH GEORGIA

CITY           SKY/WX    TMP DP  RH WIND       PRES   REMARKS
SAVANNAH       CLOUDY    53  49  86 NE5       30.16S
VALDOSTA       CLOUDY    52  51  97 CALM      30.08F
ALMA           MOCLDY    53  50  89 NE3       30.10F
ST SIMONS      MOCLDY    65  61  87 E6        30.10F
FT STEWART     CLOUDY    54  49  83 CALM      30.12S
ALBANY         MOCLDY    54  51  90 E6        30.06F
HUNTER AFB     CLOUDY    55  50  83 CALM      30.12S
MOODY AFB      CLOUDY    52  50  95 NE5       30.07F
BRUNSWICK      PTCLDY    54  50  87 CALM      30.11F


CITY           SKY/WX    TMP DP  RH WIND       PRES   REMARKS
BAINBRIDGE*    CLOUDY    50  50 100 E5        30.06F
MOULTRIE*      PTCLDY    52  50  93 E3        30.09S
VIDALIA*       CLOUDY    52  48  87 E3        30.14S
WAYCROSS*      PTCLDY    53  50  90 CALM      30.11S
DOUGLAS*       PTCLDY    52  50  93 E5        30.12F
$$



USA.gov is the U.S. government's official web portal to all federal, state and local government web resources and services.